DW5462 Weather Reports


time (UTC)temp
C
wind
direction
speed
KPH
gust
KPH
rain 1hr
cm
rain 24hr
cm
rain mn
cm
humidity
%
barometer
mb
20260903001504 12 257 0.0 0.0 0.00 0.00 0.00 86 1022.1
20260902234558 13 257 0.0 0.0 0.00 0.00 0.00 85 1022.1
20260902233057 13 257 0.0 0.0 0.00 0.00 0.00 84 1022.1
20260902231557 13 257 0.0 0.0 0.00 0.00 0.00 85 1022.2
20260902230059 14 257 0.0 0.0 0.00 0.00 0.00 84 1022.1
20260902224559 14 257 0.0 0.0 0.00 0.00 0.00 84 1022.0
20260902223055 14 257 0.0 0.0 0.00 0.00 0.00 84 1022.0
20260902221554 15 257 0.0 0.0 0.00 0.00 0.00 83 1022.1
20260902220057 15 257 0.0 0.0 0.00 0.00 0.00 83 1022.0
20260902214553 15 257 0.0 0.0 0.00 0.00 0.00 83 1022.0
20260902213052 15 257 0.0 0.0 0.00 0.00 0.00 81 1022.0
20260902211550 15 257 0.0 0.0 0.00 0.00 0.00 80 1021.9
20260902210100 15 257 0.0 0.0 0.00 0.00 0.00 80 1021.8
20260902204549 16 257 0.0 0.0 0.00 0.00 0.00 79 1021.8
20260902203050 16 257 0.0 0.0 0.00 0.00 0.00 77 1021.7
20260902201549 16 257 0.0 0.0 0.00 0.00 0.00 77 1021.6
20260902200057 16 257 0.0 0.0 0.00 0.00 0.00 77 1021.5
20260902194548 17 257 0.0 0.0 0.00 0.00 0.00 75 1021.5
20260902193048 17 257 0.0 0.0 0.00 0.00 0.00 73 1021.5
20260902191558 17 257 0.0 0.0 0.00 0.00 0.00 72 1021.3
20260902190058 18 257 0.0 0.0 0.00 0.00 0.00 70 1021.2
20260902184551 18 257 0.0 0.0 0.00 0.00 0.00 67 1021.0
20260902183046 19 257 0.0 0.0 0.00 0.00 0.00 65 1021.0
20260902181602 20 257 0.0 0.0 0.00 0.00 0.00 63 1020.9
20260902180045 20 257 0.0 0.0 0.00 0.00 0.00 62 1020.7
20260902174545 20 257 0.0 0.0 0.00 0.00 0.00 61 1020.5
20260902173043 20 257 0.0 0.0 0.00 0.00 0.00 60 1020.6
20260902171605 21 257 0.0 4.8 0.00 0.00 0.00 58 1020.6
20260902170043 21 258 0.0 3.2 0.00 0.00 0.00 56 1020.5
20260902164544 22 258 0.0 12.9 0.00 0.00 0.00 54 1020.4
20260902163042 22 261 1.6 6.4 0.00 0.00 0.00 55 1020.5
20260902161548 22 253 0.0 3.2 0.00 0.00 0.00 54 1020.5
20260902160044 22 253 0.0 3.2 0.00 0.00 0.00 53 1020.3
20260902154542 22 252 0.0 14.5 0.00 0.00 0.00 53 1020.4
20260902153043 22 290 0.0 6.4 0.00 0.00 0.00 53 1020.4
20260902151540 23 283 3.2 12.9 0.00 0.00 0.00 52 1020.5
20260902150040 23 269 0.0 8.0 0.00 0.00 0.00 52 1020.6
20260902144539 23 270 3.2 12.9 0.00 0.00 0.00 51 1020.5
20260902143038 23 250 0.0 8.0 0.00 0.00 0.00 53 1020.5
20260902141546 22 298 0.0 4.8 0.00 0.00 0.00 53 1020.5
20260902140036 23 254 1.6 11.3 0.00 0.00 0.00 51 1020.6
20260902134542 23 333 0.0 6.4 0.00 0.00 0.00 51 1020.7
20260902133039 23 274 0.0 6.4 0.00 0.00 0.00 51 1020.6
20260902131536 23 271 0.0 8.0 0.00 0.00 0.00 50 1020.6
20260902130037 23 280 0.0 6.4 0.00 0.00 0.00 50 1020.8
20260902124535 23 265 1.6 8.0 0.00 0.00 0.00 48 1020.7
20260902123033 23 271 0.0 6.4 0.00 0.00 0.00 49 1020.8
20260902121530 23 301 0.0 4.8 0.00 0.00 0.00 49 1020.9
20260902120030 23 267 0.0 11.3 0.00 0.00 0.00 49 1021.0
20260902114529 23 263 0.0 1.6 0.00 0.00 0.00 49 1021.1
20260902113028 23 267 0.0 9.7 0.00 0.00 0.00 48 1021.2
20260902111522 22 277 1.6 11.3 0.00 0.00 0.00 51 1021.4
20260902110021 22 266 1.6 9.7 0.00 0.00 0.00 52 1021.3
20260902104521 22 275 0.0 9.7 0.00 0.00 0.00 53 1021.6
20260902103016 22 270 1.6 12.9 0.00 0.00 0.00 53 1021.7
20260902101518 22 273 0.0 3.2 0.00 0.00 0.00 55 1021.8
20260902100016 21 273 0.0 4.8 0.00 0.00 0.00 59 1021.8
20260902094510 20 193 0.0 4.8 0.00 0.00 0.00 62 1022.1
20260902093008 20 190 0.0 1.6 0.00 0.00 0.00 61 1022.1
20260902091504 19 189 0.0 3.2 0.00 0.00 0.00 65 1022.0
20260902090100 19 183 0.0 3.2 0.00 0.00 0.00 65 1021.9
20260902084604 19 194 0.0 0.0 0.00 0.00 0.00 67 1021.9
20260902083059 19 136 0.0 0.0 0.00 0.00 0.00 69 1021.9
20260902080056 16 256 0.0 0.0 0.00 0.00 0.00 87 1021.7
20260902074607 15 256 0.0 0.0 0.00 0.00 0.00 92 1021.6
20260902073046 13 256 0.0 0.0 0.00 0.00 0.00 93 1021.8
20260902070041 12 256 0.0 0.0 0.00 0.00 0.00 92 1021.6
20260902064539 12 256 0.0 0.0 0.00 0.00 0.00 92 1021.6
20260902063058 12 256 0.0 0.0 0.00 0.00 0.00 92 1021.7
20260902060036 10 256 0.0 0.0 0.00 0.00 0.00 94 1021.7
20260902054535 9 256 0.0 0.0 0.00 0.00 0.00 94 1021.7
20260902053031 8 256 0.0 0.0 0.00 0.00 0.00 93 1021.6
20260902050030 8 256 0.0 0.0 0.00 0.00 0.00 92 1021.7
20260902044524 8 256 0.0 0.0 0.00 0.00 0.00 92 1021.7
20260902043022 8 256 0.0 0.0 0.00 0.00 0.00 92 1021.5
20260902040025 8 256 0.0 0.0 0.00 0.00 0.00 92 1021.4
20260902034521 8 256 0.0 0.0 0.00 0.00 0.00 92 1021.5
20260902033020 8 256 0.0 0.0 0.00 0.00 0.00 91 1021.5
20260902030016 9 256 0.0 0.0 0.00 0.00 0.00 91 1021.4
20260902024514 9 256 0.0 0.0 0.00 0.00 0.00 91 1021.4
20260902023013 9 256 0.0 0.0 0.00 0.00 0.00 91 1021.4
20260902020013 9 256 0.0 0.0 0.00 0.00 0.00 91 1021.5
20260902014519 10 256 0.0 0.0 0.00 0.00 0.00 90 1021.6
20260902013011 10 256 0.0 0.0 0.00 0.00 0.00 90 1021.6
20260902010003 10 256 0.0 0.0 0.00 0.00 0.00 90 1021.6
20260902004603 10 256 0.0 0.0 0.00 0.00 0.00 89 1021.7
20260902003133 10 256 0.0 0.0 0.00 0.00 0.00 89 1021.8